Location: Erlenbrunn
(49.1717°N, 7.6142°E)
Time: 12:36:32
(UTC+00:00)

Cosmos 389 Rocket - Pass Details

Date: 25 November 2020
Orbit: 442 x 473 km, 81.1° (Epoch: 25 January)

Event Time Altitude Azimuth Distance (km) Brightness Sun altitude
Rises 17:44:05 0° 207° (SSW) 2,437 6.6 -20.1°
Reaches altitude 10° 17:46:13 10° 215° (SW) 1,568 5.7 -20.4°
Maximum altitude 17:49:27 40° 286° (WNW) 672 3.7 -20.9°
Enters shadow 17:51:42 18° 350° (N) 1,185 4.5 -21.3°
